Flag for Canada Weather past 2 weeks in Kingston, Ontario, Canada

Now
37 °F

Overcast.


Feels Like: 30 °F
Forecast: 35 / 41 °F
Wind: 10 mph from Southwest

Location: Kingston

Current Time: Dec 26, 2014 at 8:06:15 AM

Latest Report: Dec 26, 2014 at 7:00 AM


Visibility: 15 mi

Pressure: 30.18 "Hg

Humidity: 75%

Dew point: 30 °F

Location of KingstonLocation

Historic Weather in Kingston — Graph

°F

Kingston temperature yesterday

Maximum temperature yesterday: 41 °F (at 6:00 AM)
Minimum temperature yesterday: 39 °F (at 6:00 PM)
Average temperature yesterday: 40 °F

Past Weeks' High & Low Weather Summary

 TemperatureHumidityPressure
High45 °F (Dec 24, 9:00 AM)100% (Dec 13, 2:00 PM)30.37 "Hg (Dec 13, 2:00 PM)
Low12 °F (Dec 20, 8:00 AM)63% (Dec 19, 1:00 PM)29.27 "Hg (Dec 24, 11:00 PM)
Average31 °F86%30.01 "Hg
* Reported Dec 11 7:00 AM — Dec 26 7:00 AM, Kingston, Weather by CustomWeather, © 2014

Note: Actual official high and low records may vary slightly from our data, if they occured in-between our weather recording intervals... More about our weather records

Advertising

Kingston weather history for previous 24 hours

 ConditionsComfort  
Time TempWeatherWind HumidityBarometerVisibility
7:00 AM
Dec 26
37 °FOvercast.10 mph75%30.18 "Hg15 mi
6:00 AM37 °FOvercast.13 mph75%30.15 "Hg15 mi
11:00 PM
Dec 25
39 °FOvercast.15 mph75%30.06 "Hg15 mi
10:00 PM39 °FOvercast.14 mph65%30.03 "Hg15 mi
9:00 PM39 °FOvercast.9 mph75%30.01 "Hg15 mi
8:00 PM39 °FOvercast.15 mph70%29.99 "Hg15 mi
7:00 PM39 °FMostly cloudy.10 mph75%29.96 "Hg15 mi
6:00 PM39 °FPassing clouds.14 mph70%29.92 "Hg15 mi
5:00 PM41 °FPartly cloudy.23 mph66%29.88 "Hg15 mi
4:00 PM41 °FBroken clouds.17 mph76%29.82 "Hg15 mi
3:00 PM41 °FScattered showers. Partly sunny.18 mph70%29.77 "Hg15 mi
2:00 PM41 °FLight rain. Partly sunny.18 mph76%29.72 "Hg15 mi
1:00 PM41 °FBroken clouds.20 mph76%29.67 "Hg15 mi
12:00 PM41 °FOvercast.23 mph81%29.64 "Hg15 mi
11:00 AM41 °FOvercast.24 mph76%29.62 "Hg15 mi
10:00 AM41 °FOvercast.23 mph76%29.59 "Hg15 mi
9:00 AM41 °FOvercast.23 mph81%29.54 "Hg15 mi
8:00 AM41 °FOvercast.28 mph76%29.48 "Hg15 mi
Weather by CustomWeather, © 2014

See weather overviewHow to use our weather pages